Regional Weather Roundup
Issued by NWS Portland, ME

Home | Current Version | Previous Version | Text Only | Print | Product List | Glossary On
Versions: 1 2 3 4 5 6 7 8 9 10 11 12 13 14 15 16 17 18 19 20 21 22 23 24 25 26 27 28 29 30 31 32 33 34 35 36 37 38 39 40 41 42 43 44 45 46 47 48 49 50
000
ASUS41 KGYX 011510
RWRGYX
WEATHER ROUNDUP FOR MAINE AND NEW HAMPSHIRE
NATIONAL WEATHER SERVICE GRAY ME
1000 AM EST SUN FEB 01 2015

MEZ002-005-006-010-012-015-018-020-021-024-026-027-029-011600-
MAINE

CITY           SKY/WX    TMP DP  RH WIND       PRES   REMARKS
PORTLAND       MOSUNNY   15   3  59 W7        30.07R
SANFORD        SUNNY     18   3  53 W14G21    30.06R WCI   4
BAR HARBOR     SUNNY     14   7  73 NW10G23   29.98S WCI   1
WISCASSET      SUNNY     17   1  49 VRB3      30.06S
ROCKLAND       SUNNY     14   1  57 W12       30.02S WCI   0
FRYEBURG       SUNNY     16   0  49 VRB3      30.02R
LEWISTONAUBURN SUNNY     16   0  48 NW20G26   30.04R WCI  -1
AUGUSTA        SUNNY     14  -3  47 W12       30.02R WCI   0
WATERVILLE     SUNNY     14  -4  44 W7        29.98S
BANGOR         SUNNY     11  -3  53 NW16G25   29.99R WCI  -6
GREENVILLE       N/A      2  -7  66 NW16G29   29.85S WCI -18
MILLINOCKET    SUNNY      7  -6  55 NW15      29.95R WCI -10
HOULTON        SUNNY      6  -6  57 NW15G25   29.84R WCI -12
PRESQUE ISLE   MOSUNNY    5 -17  36 NW16G25   29.85R WCI -14
FRENCHVILLE    SUNNY     -2 -13  59 NW25G41   29.79R HAZE    WCI -27
CARIBOU        MOSUNNY    2  -9  60 NW26G38   29.82R BLWGSNOWWCI -22
$$

NHZ002-005-008-009-011-012-014-011600-
NEW HAMPSHIRE

CITY           SKY/WX    TMP DP  RH WIND       PRES   REMARKS
PORTSMOUTH     MOSUNNY   19   3  51 W14G23    30.10R WCI   5
ROCHESTER      SUNNY     18   3  52 W16G26    30.06R WCI   3
NASHUA         SUNNY     21   6  52 NW10      30.14S WCI  10
MANCHESTER     SUNNY     15   3  59 CALM      30.12R
CONCORD        SUNNY     18   4  54 NW17G26   30.11S WCI   3
LACONIA        SUNNY     16   1  53 W14G25    30.06R WCI   1
PLYMOUTH       FAIR      14   5  68 W16G22    30.11R WCI  -2
BERLIN         PTSUNNY    6  -4  63 W10G17    30.04R WCI  -9
WHITEFIELD     MOSUNNY    6  -2  69 W6        30.10R
JAFFREY        SUNNY     19   7  59 VRB7      30.07S
KEENE          SUNNY      7  -2  66 CALM      30.14S
LEBANON        SUNNY      4  -4  69 CALM      30.15S
MT WASHINGTON  ICE FOG  -15 -15 100 NW74G86     N/A  VSB 1/8 WCI -57
$$

VTZ005-007-008-011600-
VERMONT

CITY           SKY/WX    TMP DP  RH WIND       PRES   REMARKS
ST JOHNSBURY     N/A     -4 -11  72 MISG      30.16R
MONTPELIER     CLOUDY     6  -1  73 NW14      30.16R WCI -11
BURLINGTON     PTSUNNY    8  -2  63 N14       30.26R WCI  -8
$$

MAZ007-012-024-CTZ003-RIZ002-NYZ038-NYZ072-011600-
SOUTHERN NEW ENGLAND AND NY

CITY           SKY/WX    TMP DP  RH WIND       PRES   REMARKS
BOSTON         MOSUNNY   20   9  62 W12       30.16R WCI   8
WORCESTER      SUNNY     12   8  84 W7        30.08S
NANTUCKET      SUNNY     27  17  66 NW16      30.15S WCI  15
PROVIDENCE     MOSUNNY   25  12  58 W8        30.17S
HARTFORD       PTSUNNY   22  11  62 SW7       30.17S
ALBANY         MOSUNNY   21  11  65 N5        30.20R
NEW YORK CITY  PTSUNNY   31  19  61 NW10      30.22S
$$

ANZ081-ANZ082-ANZ150-NHZ014-MEZ023>029-011600-
COASTAL MARINE OBSERVATIONS

STATION/POSITION TIME  TEMP    WIND        PRES    WAVE
                       AIR SEA DIR/SP/G            HT/PER
                 (UTC) (F)     (DEG/KT/KT) (MB)    (FT/S)
MOUNT DESERT ROC 1500   17                 1015.0R
MATINICUS ROCK   1500          290/ 23/ 27 1016.5S
PORTLAND WX BUOY 1450   17 41  280/ 12/ 16 1017.9R   2/ 4
WELLS            1400   14 34  280/  8/ 11 1017.6R
ISLE OF SHOALS   1500   18     290/ 25/ 28 1018.1F
JEFFREYS LEDGE   1421      44                N/A     6/ 5
CASHES LEDGE BUO 1450   25 43  290/ 17/ 21 1016.7R   5/ 6
$$

.............KEY..............
   WCI - WIND CHILL
   TC  - TEMPERATURE IN CELSIUS
   VSB - VISIBILITY IN MILES
   HX  - HEAT INDEX
   FAIR- INDICATES FEW OR NO CLOUDS BELOW 12,000 FT, WITH NO
         SIGNIFICANT WEATHER AND/OR OBSTRUCTIONS TO VISIBILITY.





USA.gov is the U.S. government's official web portal to all federal, state and local government web resources and services.